Time,TemperatureF,DewpointF,PressureIn,WindDirection,WindDirectionDegrees,WindSpeedMPH,WindSpeedGustMPH,Humidity,HourlyPrecipIn,Conditions,Clouds,dailyrainin,SolarRadiationWatts/m^2,SoftwareType,DateUTC
2013-02-03 00:01:00,31.0,24.0,-100.00,West,265,1.0,7.0,75,0.00,,,0.06,0.000000,,2013-02-03 07:01:00,
2013-02-03 00:11:00,31.0,24.0,-100.00,West,265,1.0,7.0,75,0.00,,,0.06,0.000000,,2013-02-03 07:11:00,
2013-02-03 00:21:00,31.0,24.0,-100.00,West,265,1.0,7.0,75,0.00,,,0.06,0.000000,,2013-02-03 07:21:00,
2013-02-03 00:52:00,31.0,25.0,-100.00,South,170,2.0,6.0,79,0.00,,,0.06,0.000000,,2013-02-03 07:52:00,
2013-02-03 01:01:00,31.0,25.0,-100.00,South,170,2.0,6.0,79,0.00,,,0.06,0.000000,,2013-02-03 08:01:00,
2013-02-03 01:11:00,31.0,25.0,-100.00,South,170,2.0,6.0,79,0.00,,,0.06,0.000000,,2013-02-03 08:11:00,
2013-02-03 01:22:00,31.0,25.0,-100.00,South,170,2.0,6.0,79,0.00,,,0.06,0.000000,,2013-02-03 08:22:00,
2013-02-03 01:52:00,29.0,21.0,-100.00,SW,230,3.0,4.0,73,0.00,,,0.06,0.000000,,2013-02-03 08:52:00,
2013-02-03 02:02:00,29.0,21.0,-100.00,SW,230,3.0,4.0,73,0.00,,,0.06,0.000000,,2013-02-03 09:02:00,
2013-02-03 02:11:00,29.0,21.0,-100.00,SW,230,3.0,4.0,73,0.00,,,0.06,0.000000,,2013-02-03 09:11:00,
2013-02-03 02:21:00,29.0,21.0,-100.00,SW,230,3.0,4.0,73,0.00,,,0.06,0.000000,,2013-02-03 09:21:00,
2013-02-03 02:42:00,30.0,23.0,-100.00,SW,232,6.0,6.0,75,0.00,,,0.06,0.000000,,2013-02-03 09:42:00,
2013-02-03 02:52:00,30.0,23.0,-100.00,SW,232,6.0,6.0,75,0.00,,,0.06,0.000000,,2013-02-03 09:52:00,
2013-02-03 03:01:00,30.0,23.0,-100.00,SW,232,6.0,6.0,75,0.00,,,0.06,0.000000,,2013-02-03 10:01:00,
2013-02-03 03:11:00,30.0,23.0,-100.00,SW,232,6.0,6.0,75,0.00,,,0.06,0.000000,,2013-02-03 10:11:00,
2013-02-03 03:21:00,30.0,23.0,-100.00,SW,232,6.0,6.0,75,0.00,,,0.06,0.000000,,2013-02-03 10:21:00,
2013-02-03 03:53:00,31.0,24.0,-100.00,WSW,245,5.0,12.0,76,0.00,,,0.06,0.000000,,2013-02-03 10:53:00,
2013-02-03 04:02:00,31.0,24.0,-100.00,WSW,245,5.0,12.0,76,0.00,,,0.06,0.000000,,2013-02-03 11:02:00,
2013-02-03 04:11:00,31.0,24.0,-100.00,WSW,245,5.0,12.0,76,0.00,,,0.06,0.000000,,2013-02-03 11:11:00,
2013-02-03 04:22:00,31.0,24.0,-100.00,WSW,245,5.0,12.0,76,0.00,,,0.06,0.000000,,2013-02-03 11:22:00,
2013-02-03 04:52:00,31.0,24.0,-100.00,WSW,253,6.0,13.0,75,0.00,,,0.06,0.000000,,2013-02-03 11:52:00,
2013-02-03 05:02:00,31.0,24.0,-100.00,WSW,253,6.0,13.0,75,0.00,,,0.06,0.000000,,2013-02-03 12:02:00,
2013-02-03 05:11:00,31.0,24.0,-100.00,WSW,253,6.0,13.0,75,0.00,,,0.06,0.000000,,2013-02-03 12:11:00,
2013-02-03 05:22:00,31.0,24.0,-100.00,WSW,253,6.0,13.0,75,0.00,,,0.06,0.000000,,2013-02-03 12:22:00,
2013-02-03 05:53:00,32.0,24.0,-100.00,WSW,244,6.0,13.0,73,0.00,,,0.06,0.000000,,2013-02-03 12:53:00,
2013-02-03 06:03:00,32.0,24.0,-100.00,WSW,244,6.0,13.0,73,0.00,,,0.06,0.000000,,2013-02-03 13:03:00,
2013-02-03 06:11:00,32.0,24.0,-100.00,WSW,244,6.0,13.0,73,0.00,,,0.06,0.000000,,2013-02-03 13:11:00,
2013-02-03 06:21:00,32.0,24.0,-100.00,WSW,244,6.0,13.0,73,0.00,,,0.06,0.000000,,2013-02-03 13:21:00,
2013-02-03 06:52:00,32.0,24.0,-100.00,WNW,286,1.0,14.0,73,0.00,,,0.06,0.000000,,2013-02-03 13:52:00,
2013-02-03 07:02:00,32.0,24.0,-100.00,WNW,286,1.0,14.0,73,0.00,,,0.06,0.000000,,2013-02-03 14:02:00,
2013-02-03 07:11:00,32.0,24.0,-100.00,WNW,286,1.0,14.0,73,0.00,,,0.06,0.000000,,2013-02-03 14:11:00,
2013-02-03 07:21:00,32.0,24.0,-100.00,WNW,286,1.0,14.0,73,0.00,,,0.06,0.000000,,2013-02-03 14:21:00,
2013-02-03 07:52:00,31.0,25.0,-100.00,East,86,1.0,11.0,78,0.00,,,0.06,0.000000,,2013-02-03 14:52:00,
2013-02-03 08:03:00,31.0,25.0,-100.00,East,86,1.0,11.0,78,0.00,,,0.06,0.000000,,2013-02-03 15:03:00,
2013-02-03 08:11:00,31.0,25.0,-100.00,East,86,1.0,11.0,78,0.00,,,0.06,0.000000,,2013-02-03 15:11:00,
2013-02-03 08:22:00,31.0,25.0,-100.00,East,86,1.0,11.0,78,0.00,,,0.06,0.000000,,2013-02-03 15:22:00,
2013-02-03 08:52:00,29.0,20.0,-100.00,ENE,66,1.0,4.0,69,0.00,,,0.06,1.000000,,2013-02-03 15:52:00,
2013-02-03 09:02:00,29.0,20.0,-100.00,ENE,66,1.0,4.0,69,0.00,,,0.06,1.000000,,2013-02-03 16:02:00,
2013-02-03 09:11:00,29.0,20.0,-100.00,ENE,66,1.0,4.0,69,0.00,,,0.06,1.000000,,2013-02-03 16:11:00,
2013-02-03 09:22:00,29.0,20.0,-100.00,ENE,66,1.0,4.0,69,0.00,,,0.06,1.000000,,2013-02-03 16:22:00,
2013-02-03 09:52:00,31.0,14.0,-100.00,WSW,246,2.0,11.0,49,0.00,,,0.06,34.000000,,2013-02-03 16:52:00,
2013-02-03 10:02:00,31.0,14.0,-100.00,WSW,246,2.0,11.0,49,0.00,,,0.06,34.000000,,2013-02-03 17:02:00,
2013-02-03 10:11:00,31.0,14.0,-100.00,WSW,246,2.0,11.0,49,0.00,,,0.06,34.000000,,2013-02-03 17:11:00,
2013-02-03 10:22:00,31.0,14.0,-100.00,WSW,246,2.0,11.0,49,0.00,,,0.06,34.000000,,2013-02-03 17:22:00,
2013-02-03 10:52:00,42.0,26.0,-100.00,SW,217,1.0,9.0,52,0.00,,,0.06,232.000000,,2013-02-03 17:52:00,
2013-02-03 11:52:00,41.0,25.0,-100.00,West,261,5.0,7.0,53,0.00,,,0.05,218.000000,,2013-02-03 18:52:00,
2013-02-03 12:02:00,41.0,25.0,-100.00,West,261,5.0,7.0,53,0.00,,,0.05,218.000000,,2013-02-03 19:02:00,
2013-02-03 12:11:00,41.0,25.0,-100.00,West,261,5.0,7.0,53,0.00,,,0.05,218.000000,,2013-02-03 19:11:00,
2013-02-03 12:22:00,41.0,25.0,-100.00,West,261,5.0,7.0,53,0.00,,,0.05,218.000000,,2013-02-03 19:22:00,
2013-02-03 12:42:00,40.0,25.0,-100.00,WSW,258,6.0,11.0,54,0.01,,,0.06,221.000000,,2013-02-03 19:42:00,
2013-02-03 12:52:00,40.0,25.0,-100.00,WSW,258,6.0,11.0,54,0.01,,,0.06,221.000000,,2013-02-03 19:52:00,
2013-02-03 13:01:00,40.0,25.0,-100.00,WSW,258,6.0,11.0,54,0.01,,,0.06,221.000000,,2013-02-03 20:01:00,
2013-02-03 13:12:00,40.0,25.0,-100.00,WSW,258,6.0,11.0,54,0.01,,,0.06,221.000000,,2013-02-03 20:12:00,
2013-02-03 13:21:00,40.0,25.0,-100.00,WSW,258,6.0,11.0,54,0.01,,,0.06,221.000000,,2013-02-03 20:21:00,
2013-02-03 13:52:00,40.0,24.0,-100.00,West,268,7.0,14.0,53,0.00,,,0.04,249.000000,,2013-02-03 20:52:00,
2013-02-03 14:03:00,40.0,24.0,-100.00,West,268,7.0,14.0,53,0.00,,,0.04,249.000000,,2013-02-03 21:03:00,
2013-02-03 14:11:00,40.0,24.0,-100.00,West,268,7.0,14.0,53,0.00,,,0.04,249.000000,,2013-02-03 21:11:00,
2013-02-03 14:21:00,40.0,24.0,-100.00,West,268,7.0,14.0,53,0.00,,,0.04,249.000000,,2013-02-03 21:21:00,
2013-02-03 14:42:00,42.0,26.0,-100.00,WNW,296,7.0,16.0,53,0.00,,,0.02,309.000000,,2013-02-03 21:42:00,
2013-02-03 14:52:00,42.0,26.0,-100.00,WNW,296,7.0,16.0,53,0.00,,,0.02,309.000000,,2013-02-03 21:52:00,
2013-02-03 15:01:00,42.0,26.0,-100.00,WNW,296,7.0,16.0,53,0.00,,,0.02,309.000000,,2013-02-03 22:01:00,
2013-02-03 15:11:00,42.0,26.0,-100.00,WNW,296,7.0,16.0,53,0.00,,,0.02,309.000000,,2013-02-03 22:11:00,
2013-02-03 15:21:00,42.0,26.0,-100.00,WNW,296,7.0,16.0,53,0.00,,,0.02,309.000000,,2013-02-03 22:21:00,
2013-02-03 15:52:00,43.0,29.0,-100.00,ENE,75,4.0,16.0,58,0.00,,,0.02,260.000000,,2013-02-03 22:52:00,
2013-02-03 16:01:00,43.0,29.0,-100.00,ENE,75,4.0,16.0,58,0.00,,,0.02,260.000000,,2013-02-03 23:01:00,
2013-02-03 16:12:00,43.0,29.0,-100.00,ENE,75,4.0,16.0,58,0.00,,,0.02,260.000000,,2013-02-03 23:12:00,
2013-02-03 16:22:00,43.0,29.0,-100.00,ENE,75,4.0,16.0,58,0.00,,,0.02,260.000000,,2013-02-03 23:22:00,
2013-02-03 16:52:00,41.0,30.0,-100.00,NW,324,1.0,14.0,65,0.00,,,0.01,215.000000,,2013-02-03 23:52:00,
2013-02-03 17:02:00,41.0,30.0,-100.00,NW,324,1.0,14.0,65,0.00,,,0.01,215.000000,,2013-02-04 00:02:00,
2013-02-03 17:11:00,41.0,30.0,-100.00,NW,324,1.0,14.0,65,0.00,,,0.01,215.000000,,2013-02-04 00:11:00,
2013-02-03 17:22:00,41.0,30.0,-100.00,NW,324,1.0,14.0,65,0.00,,,0.01,215.000000,,2013-02-04 00:22:00,
2013-02-03 17:42:00,38.0,29.0,-100.00,NNW,333,4.0,12.0,71,0.00,,,0.01,100.000000,,2013-02-04 00:42:00,
2013-02-03 17:52:00,38.0,29.0,-100.00,NNW,333,4.0,12.0,71,0.00,,,0.01,100.000000,,2013-02-04 00:52:00,
2013-02-03 18:01:00,38.0,29.0,-100.00,NNW,333,4.0,12.0,71,0.00,,,0.01,100.000000,,2013-02-04 01:01:00,
2013-02-03 18:11:00,38.0,29.0,-100.00,NNW,333,4.0,12.0,71,0.00,,,0.01,100.000000,,2013-02-04 01:11:00,
2013-02-03 18:21:00,38.0,29.0,-100.00,NNW,333,4.0,12.0,71,0.00,,,0.01,100.000000,,2013-02-04 01:21:00,
2013-02-03 18:42:00,36.0,30.0,-100.00,North,356,4.0,10.0,80,0.00,,,0.01,15.000000,,2013-02-04 01:42:00,
2013-02-03 18:52:00,36.0,30.0,-100.00,North,356,4.0,10.0,80,0.00,,,0.01,15.000000,,2013-02-04 01:52:00,
2013-02-03 19:02:00,36.0,30.0,-100.00,North,356,4.0,10.0,80,0.00,,,0.01,15.000000,,2013-02-04 02:02:00,
2013-02-03 19:42:00,33.0,27.0,-100.00,NNW,337,5.0,9.0,78,-99.99,,,0.01,0.000000,,2013-02-04 02:42:00,
2013-02-03 19:52:00,33.0,27.0,-100.00,NNW,337,5.0,9.0,78,-99.99,,,0.01,0.000000,,2013-02-04 02:52:00,
2013-02-03 20:02:00,33.0,27.0,-100.00,NNW,337,5.0,9.0,78,-99.99,,,0.01,0.000000,,2013-02-04 03:02:00,
2013-02-03 20:11:00,33.0,27.0,-100.00,NNW,337,5.0,9.0,78,-99.99,,,0.01,0.000000,,2013-02-04 03:11:00,
2013-02-03 20:21:00,33.0,27.0,-100.00,NNW,337,5.0,9.0,78,-99.99,,,0.01,0.000000,,2013-02-04 03:21:00,
2013-02-03 20:52:00,30.0,26.0,-100.00,NE,36,2.0,12.0,85,0.00,,,0.01,0.000000,,2013-02-04 03:52:00,
2013-02-03 21:01:00,30.0,26.0,-100.00,NE,36,2.0,12.0,85,0.00,,,0.01,0.000000,,2013-02-04 04:01:00,
2013-02-03 21:11:00,30.0,26.0,-100.00,NE,36,2.0,12.0,85,0.00,,,0.01,0.000000,,2013-02-04 04:11:00,
2013-02-03 21:21:00,30.0,26.0,-100.00,NE,36,2.0,12.0,85,0.00,,,0.01,0.000000,,2013-02-04 04:21:00,
2013-02-03 21:52:00,25.0,22.0,-100.00,NNE,32,1.0,8.0,88,0.00,,,0.01,0.000000,,2013-02-04 04:52:00,
2013-02-03 22:03:00,25.0,22.0,-100.00,NNE,32,1.0,8.0,88,0.00,,,0.01,0.000000,,2013-02-04 05:03:00,
2013-02-03 22:11:00,25.0,22.0,-100.00,NNE,32,1.0,8.0,88,0.00,,,0.01,0.000000,,2013-02-04 05:11:00,
2013-02-03 22:22:00,25.0,22.0,-100.00,NNE,32,1.0,8.0,88,0.00,,,0.01,0.000000,,2013-02-04 05:22:00,
2013-02-03 22:52:00,23.0,21.0,-100.00,WSW,246,0.0,7.0,91,0.00,,,0.01,0.000000,,2013-02-04 05:52:00,
2013-02-03 23:02:00,23.0,21.0,-100.00,WSW,246,0.0,7.0,91,0.00,,,0.01,0.000000,,2013-02-04 06:02:00,
2013-02-03 23:11:00,23.0,21.0,-100.00,WSW,246,0.0,7.0,91,0.00,,,0.01,0.000000,,2013-02-04 06:11:00,
2013-02-03 23:21:00,23.0,21.0,-100.00,WSW,246,0.0,7.0,91,0.00,,,0.01,0.000000,,2013-02-04 06:21:00,
2013-02-03 23:52:00,20.0,19.0,-100.00,WSW,243,1.0,4.0,94,0.00,,,0.01,0.000000,,2013-02-04 06:52:00,